sat.trackr.live / text

‹ back to catalog

STARLINK-2101

NORAD 47381 · 2021-005AJ

PAYLOAD ACTIVE UNKNOWN

§ Identity

Operator
Country
US
Launch date
2021-01-20
Launch site
AFETR
Launch vehicle
Mass (kg)
RCS (m²)

Purposes: comms

External: N2YO · Heavens-Above · Gunter

§ Orbital elements

Epoch: 2026-09-19T12:05:45.663072Z

Period
93.88 min
Inclination
53.1608°
Eccentricity
0.0001200
Mean motion
15.33933732 rev/d
Perigee alt
463.3 km
Apogee alt
464.9 km
Semi-major
6,842.2 km
B*
2.7366e-4
RAAN
215.3190°
Arg perigee
85.2897°
Mean anomaly
274.8242°
Rev number
31,308

§ Raw data

STARLINK-21011 47381U 21005AJ  26262.50400073  .00008747  00000+0  27366-3 0  99902 47381  53.1608 215.3190 0001200  85.2897 274.8242 15.33933732313084

JSON: /api/v1/satellites/47381 · /tle

For live sub-satellite position, see the globe view (requires WebGL).

§ Visibility from observer

Set your observer location to see the next 7 days of passes ≥ 10°. The values pass through the URL so the page stays shareable.

No JS? Fill the form by hand. The geolocation button needs JavaScript.